THORAD DELTA 1 DEB, 8595

Orbit data source: Space-Track

THORAD DELTA 1 DEB, 8595 is space debris in SSO originally from a launch on Fri, 15 Nov 1974 UTC launched from the Air Force Western Test Range (AFWTR). Debris objects in space refer to the collection of defunct objects orbiting the Earth. Examples of debris include non-operational satellites, rocket bodies, and fragments generated from explosions, collisions, or faulty payload assembly.

Loading next visibility...
Identifier
8595, 1974-089DJ
Orbit
SSO
Country
Flag of USUS
Related business
Manufacturer
Unknown
Mission
Spacecraft
Bus & Motor
Unknown
Mass
Unknown
Launch date (UTC)
1974-11-15 (51 years ago)
Launch vehicle
Unknown
Launch site
Air Force Western Test Range (AFWTR)
Object type
Payload
Rocket body
Debris
Shape & HBR
Unknown shape, 0.2 m
Radar Cross Section
Small (<0.1 m²)

Expand to show TLE details & history
Last TLE update: 8 hours ago

TLE from 8 hours ago
0 THORAD DELTA 1 DEB
1  8595U 74089DJ  26130.13373332 -.00000015  00000-0  20983-3 0  9994
2  8595 101.4244 335.3673 0148855 164.0758 317.0973 12.25477093302754
Epoch: 2026-05-10T03:12Z
TLE epoch observation values (Epoch: 2026-05-10T03:12:34.558Z)
Latitude
58.18474°
Longitude
-101.80515°
Altitude
1,492.563 km
Speed
7.161 km/s
True Right ascension
11h 37m 07s
True Declination
58° 02' 42"
Sunlit
Object was in daylight at epoch
Visualization orbit readout
Latitude
Unknown
Longitude
Unknown
Altitude
Unknown
Speed
Unknown
Apparent Right ascension
Unknown
Apparent Declination
Unknown
Sunlit
N/A
Visualization observer readout
Local Sidereal Time
19:34:20
Azimuth
Unknown
Elevation
Unknown
Doppler factor
Unknown
Orbital elements
Apogee altitude
1,684.592 km
Perigee altitude
1,448.077 km
Semi-major axis
7,944.471 km
Eccentricity
0.01489
Inclination
101.4244°
RAAN
335.3673°
Arg. of periapsis
164.0758°
True anomaly
315.92015°
Mean anomaly
317.0973°
Eccentric anomaly
316.51033°
Mean motion
3.06511 °/min
Orbital period
117.45 mins
BSTAR
0.00020983
Loading maneuver chart data...
Computing Atmospheric mass density...
Loading historical data...
Loading historical data...
Loading historical data...
Loading historical data...
Loading historical data...
Loading historical data...
Loading historical data...

Documentation

Showing up to 5 results
|